Location: Rock Island IL
(41.5000°N, 90.5500°W)
Time: 01:44:02
(UTC-05:00)

Daily predictions for brighter satellites

Satellite Brightness Start Highest point End
(mag) Time Altitude Azimuth Time Altitude Azimuth Time Altitude Azimuth
Terra 3.6 00:05:35 19° WSW 00:06:52 21° W 00:10:29 10° NW
CZ-2C R/B 4.3 00:05:17 10° NE 00:08:48 19° E 00:08:48 19° E
Cosmos 1340 Rocket 3.9 00:10:33 36° ENE 00:10:33 36° ENE 00:13:24 10° NNE
H-2A R/B 3.3 00:05:37 10° NNE 00:09:09 42° ENE 00:09:09 42° ENE
Cosmos 2297 Rocket 3.5 00:05:33 13° WSW 00:10:07 37° WNW 00:15:22 10° N
Aureole 2 Rocket 3.6 00:09:58 10° NNW 00:12:08 39° N 00:12:08 39° N
Cosmos 1733 Rocket 3.7 00:14:20 44° ENE 00:14:20 44° ENE 00:18:14 10° NNE
Cosmos 1869 Rocket 4.3 00:13:38 42° WSW 00:14:18 46° WNW 00:18:38 10° N
Cosmos 2219 Rocket 4.3 00:12:06 10° WNW 00:14:40 13° W 00:16:27 12° WSW
ATLAS 2AS CENTAUR R/B 3.9 00:11:05 10° WSW 00:18:23 48° NW 00:26:11 10° NNE
CZ-4C R/B 3.9 00:19:37 49° N 00:19:37 49° N 00:22:23 10° N
Cosmos 374 Rocket 4.5 00:16:27 10° NW 00:20:26 85° NE 00:20:26 85° NE
Helios 1A Rocket 4.3 00:18:56 10° NNE 00:21:50 29° ENE 00:21:50 29° ENE
BREEZE-M TANK 3.7 00:12:21 10° W 00:23:37 62° NNW 00:26:55 10° ENE
ALOS 2 2.5 00:30:07 81° NE 00:30:07 81° NE 00:34:24 10° N
Coronas F rocket 4.4 00:33:07 15° NNE 00:33:07 15° NNE 00:33:43 10° NNE
ATLAS 3B R/B 3.1 00:24:57 10° NW 00:31:23 43° WSW 00:32:30 40° SW
Uosat 12 SS-18 rocket 4.2 00:32:04 78° WSW 00:32:21 85° WNW 00:36:52 10° NNE
Cosmos 1603 3.6 00:27:15 10° NNW 00:32:59 88° ENE 00:33:53 65° SSE
Cosmos 1689 Rocket 3.8 00:36:12 36° N 00:36:12 36° N 00:38:19 10° N
Cosmos 1606 4.3 00:31:57 10° NNE 00:34:52 28° ENE 00:34:52 28° ENE
Okean 1-7 4.2 00:32:01 10° NNW 00:35:44 32° W 00:35:44 32° W
Meteor 2-6 Rocket 4.4 00:37:20 10° N 00:43:11 69° E 00:44:18 56° SE
USA 238 DEB 3.7 00:37:00 10° NW 00:44:01 75° WSW 00:45:45 53° S
USA 238 3.7 00:37:06 10° NW 00:44:07 76° WSW 00:45:52 53° S
Geosat 4.4 00:42:32 10° NE 00:47:11 49° ESE 00:47:11 49° ESE
Cosmos 1892 3.6 00:52:20 45° NW 00:52:20 45° NW 00:55:21 10° N
Cosmos 2251 Rocket 3.7 00:47:31 10° NNW 00:52:45 58° WSW 00:52:57 57° WSW
Cosmos 1408 4.3 00:55:31 26° ENE 00:55:31 26° ENE 00:57:52 10° NNE
Cosmos 2084 Rocket 4.3 00:57:29 40° NW 00:57:29 40° NW 01:01:03 10° NNE
Cosmos 44 3.6 01:00:25 59° WSW 01:01:21 73° NW 01:06:49 10° NNE
Cosmos 921 Rocket 3.2 01:02:02 66° N 01:02:02 66° N 01:05:43 10° NNE
Cosmos 1674 Rocket 3.8 00:58:57 10° NNW 01:02:59 63° WNW 01:02:59 63° WNW
SeaSat 1 3.5 01:06:12 32° W 01:06:12 32° W 01:10:11 10° NW
Nadezhda 3 Rocket 3.9 01:01:29 10° N 01:07:42 77° W 01:08:56 59° SSW
Cosmos 1238 Rocket 3.6 01:04:58 10° N 01:07:47 44° N 01:07:47 44° N
CZ-4B R/B 3.4 01:10:53 24° NW 01:10:53 24° NW 01:12:40 10° NNW
Cosmos 494 Rocket 4.1 01:04:57 10° NNW 01:10:07 59° WSW 01:10:13 59° WSW
Cosmos 1607 3.8 01:05:41 10° NW 01:11:47 69° WSW 01:12:34 62° SSW
Cosmos 1825 3.2 01:13:16 41° NE 01:13:16 41° NE 01:16:04 10° NNE
Lacrosse 4 Rocket 4.1 01:10:51 10° W 01:11:13 11° W 01:11:13 11° W
BREEZE-M DEB (TANK) 4.2 01:11:12 18° NW 01:12:48 30° N 01:18:11 10° ENE
Cosmos 1356 Rocket 4.2 01:13:59 43° WNW 01:13:59 43° WNW 01:17:29 10° N
CZ-2C R/B 3.7 01:12:41 44° ESE 01:14:08 56° ENE 01:19:36 10° N
Cosmos 1975 Rocket 3.6 01:10:28 10° N 01:14:38 50° ENE 01:14:38 50° ENE
Cosmos 1867 4.1 01:09:34 10° NNW 01:14:58 54° NE 01:16:47 37° ESE
ASTEX 1 4.3 01:11:53 10° N 01:16:22 38° WNW 01:16:55 36° W
NOSS 3-2 (C) 4.1 01:10:12 10° NNW 01:17:42 72° NE 01:22:15 29° SE
GEOS 3 Rocket 4.0 01:19:33 47° WSW 01:19:33 47° WSW 01:24:13 10° NW
Cosmos 1908 Rocket 3.7 01:21:52 67° NW 01:21:52 67° NW 01:25:52 10° N
MOS 1-B Rocket 3.8 01:25:22 61° SSW 01:26:08 69° WSW 01:31:43 10° NNW
Cosmos 2263 Rocket 2.1 01:27:59 65° SSE 01:28:37 72° ESE 01:34:18 10° NNE
Cosmos 1242 Rocket 4.3 01:30:06 10° NNE 01:32:42 25° ENE 01:32:42 25° ENE
Okean 3 3.6 01:33:08 10° N 01:37:03 69° NW 01:37:03 69° NW
NOSS 3-4 (A) 3.5 01:38:07 50° SW 01:39:57 83° NW 01:46:35 10° NE
NOSS 3-2 (A) 3.9 01:32:30 10° NW 01:40:02 76° WSW 01:43:01 42° SSE
NOSS 3-4 (C) 3.5 01:38:14 51° SW 01:40:02 84° NW 01:46:40 10° NE
Cosmos 1295 Rocket 4.5 01:39:00 55° SSW 01:40:27 75° W 01:46:50 10° N
CZ-4C R/B 2.9 01:37:53 10° NW 01:44:56 60° WSW 01:46:52 47° S
CZ-2C R/B 2.9 01:44:24 10° N 01:49:28 52° WNW 01:50:19 47° WSW
Cosmos 2151 Rocket 4.0 01:53:53 53° E 01:54:01 53° E 01:58:22 10° NNE
COSMOS 2406 4.1 01:49:31 10° NNW 01:55:05 46° ENE 01:58:32 22° ESE
BREEZE-M DEB (TANK) 4.4 01:44:54 10° WSW 02:02:04 62° NNW 02:06:29 10° NE
Cosmos 1943 3.8 01:59:40 10° NW 02:04:52 38° WSW 02:04:54 38° WSW
Cosmos 1371 Rocket 4.0 02:07:07 60° SW 02:08:03 76° WNW 02:13:26 10° NNE
Cosmos 2056 Rocket 3.4 02:08:09 64° S 02:08:59 82° ESE 02:14:14 10° NNE
RESURS DK-1 2.6 02:09:48 62° WNW 02:09:48 62° WNW 02:13:53 10° NNE
Cosmos 407 Rocket 4.0 02:07:02 10° NNW 02:12:08 56° ENE 02:14:14 33° SE
Landsat 4 4.5 02:15:01 44° E 02:15:24 45° ENE 02:19:03 10° N
Abrixas rocket 3.3 02:17:34 45° N 02:17:34 45° N 02:20:26 10° NE
Meteor 2-19 Rocket 4.4 02:17:49 49° S 02:19:40 89° ESE 02:25:53 10° N
GP-B 4.2 02:21:31 10° NNE 02:25:40 37° E 02:26:58 30° SE
SL-08 R/B 4.3 02:23:17 24° SE 02:25:50 44° ENE 02:30:28 10° N
Meteor 1-14 Rocket 4.4 02:26:24 46° SW 02:28:01 64° WNW 02:33:53 10° N
SL-27 R/B 2.9 02:25:26 10° N 02:29:03 58° ENE 02:29:13 57° E
Cosmos 1339 Rocket 4.4 02:23:09 10° NNW 02:29:12 72° W 02:31:03 46° SSW
NPP 4.2 02:25:04 10° NNE 02:30:19 50° E 02:32:08 36° SSE
Meteor 2-8 Rocket 4.5 02:25:56 10° NNW 02:31:56 63° W 02:33:41 45° SSW
Iridium 4 Rocket 3.4 02:34:26 10° N 02:39:10 66° W 02:40:12 52° SW
AQUA 4.4 02:35:08 10° NNE 02:39:45 48° E 02:41:12 36° SSE
Elektron 3 4.3 02:40:31 10° NW 02:43:40 70° SW 02:44:10 62° S
ERS-2 2.8 02:41:15 10° NNE 02:44:49 44° E 02:45:16 41° ESE
CZ-2D R/B 4.3 02:42:18 10° NE 02:46:01 18° E 02:49:43 10° SE
Cosmos 909 Rocket 4.5 02:43:37 32° WSW 02:46:39 61° NW 02:54:05 10° NNE
Cosmos 1954 Rocket 4.2 02:43:06 10° NNW 02:48:17 68° ENE 02:51:23 24° SSE
USA 234 3.3 02:43:05 10° SE 02:49:36 80° NE 02:56:10 10° NW
Cosmos 1300 Rocket 3.4 02:50:51 58° S 02:51:40 88° W 02:56:04 10° N
JB-3 4.5 02:48:14 10° N 02:52:00 54° WNW 02:52:19 52° W
Cosmos 1536 4.5 02:50:57 21° SE 02:52:38 28° E 02:56:09 10° NNE
Meteor 1-18 Rocket 4.4 02:47:08 10° NNW 02:52:42 58° W 02:54:31 40° SSW
CENTAUR R/B 3.1 02:48:30 10° NW 02:56:23 84° NE 03:04:42 10° SE
Cosmos 1535 Rocket 4.4 02:54:41 35° S 02:57:32 88° E 03:03:51 10° N
Cosmos 1812 2.8 02:55:48 10° NNW 02:59:38 57° W 02:59:48 56° WSW
Gbstr 26 Del rocket 2.6 03:00:16 61° SW 03:00:56 89° SE 03:04:43 10° NE
USA 161 3.4 03:01:36 21° ESE 03:02:38 27° ENE 03:05:12 10° NNE
IRS-1C 4.3 02:58:53 10° NNE 03:04:14 70° ESE 03:06:44 32° S
Meteor 1-20 Rocket 4.4 03:03:18 36° SW 03:05:33 61° WNW 03:11:17 10° N
IRAS Rocket 4.2 03:00:29 10° NNE 03:06:02 79° WNW 03:08:26 36° SSW
Cosmos 1844 Rocket 2.7 03:06:36 37° SSW 03:08:57 80° WNW 03:14:40 10° NNE
Cosmos 2263 Rocket 4.1 03:09:40 12° W 03:13:08 19° NW 03:17:10 10° N
Cosmos 1452 Rocket 3.7 03:12:45 35° SW 03:14:48 61° WNW 03:20:01 10° NNE
Cosmos 1023 Rocket 4.5 03:09:46 10° NNW 03:14:54 78° ENE 03:19:05 15° SSE
ARIANE 5 R/B 3.4 03:10:10 10° NNE 03:14:55 42° E 03:18:07 19° SSE
Meteor 1-11 Rocket 3.8 03:15:58 28° S 03:19:17 85° E 03:25:18 10° N
Cosmos 1461 3.3 03:19:20 36° S 03:21:10 67° ESE 03:25:46 10° NE
Meteor 1-13 Rocket 4.2 03:17:11 10° NNW 03:22:53 74° W 03:26:30 24° S
Cosmos 1844 3.7 03:20:36 32° SSW 03:23:24 83° WNW 03:29:12 10° NNE
Resurs 1-4 Rocket 3.2 03:18:50 10° NNE 03:23:47 39° E 03:27:59 14° SSE
Cosmos 1420 Rocket 4.0 03:21:23 31° SSW 03:23:59 85° ESE 03:29:18 10° NNE
CBERS-1 4.2 03:19:58 10° N 03:25:04 62° WNW 03:27:27 31° SW
ATLAS 5 CENTAUR R/B 2.8 03:24:11 10° NNW 03:30:07 65° NE 03:36:28 10° SE
Okean 1 4.3 03:26:51 10° NNW 03:30:19 28° W 03:30:43 28° WSW
Cosmos 1934 Rocket 4.0 03:29:13 27° SSW 03:32:44 65° W 03:38:51 10° N
Cosmos 1400 Rocket 3.1 03:30:49 26° SSE 03:32:48 59° E 03:36:42 10° NNE
ADEOS 3.6 03:29:47 10° N 03:35:01 74° WNW 03:37:58 26° SSW
Cosmos 2278 Rocket 2.2 03:32:42 27° SSW 03:35:58 85° ESE 03:41:41 10° NNE
Cosmos 1633 2.5 03:34:35 34° S 03:36:03 82° E 03:39:42 10° N
Cosmos 1140 Rocket 3.4 03:31:09 10° NNW 03:36:15 68° WSW 03:40:11 17° S
Meteor 1-23 Rocket 4.4 03:30:56 10° N 03:36:40 74° E 03:42:17 10° SSE
Okean 1 Rocket 4.1 03:35:29 26° WSW 03:36:56 32° WNW 03:40:58 10° NNW
COSMOS 2487 2.4 03:33:48 10° NNW 03:37:25 71° WSW 03:39:09 29° S
NOSS 2-2 (D) 3.6 03:36:10 31° SW 03:38:04 69° NW 03:42:53 10° NNE
Okean 1-7 Rocket 4.5 03:35:00 10° NNW 03:39:06 33° W 03:40:30 27° SW
COSMOS 2406 4.2 03:34:24 10° NW 03:39:06 26° WSW 03:40:33 24° SW
UNK 4.2 03:35:51 10° SSE 03:40:24 62° ENE 03:45:00 10° N
Timation 2 Rocket 4.0 03:41:44 10° NNW 03:47:55 81° ENE 03:53:54 10° SSE
Meteor 2-15 Rocket 4.4 03:42:56 10° NNW 03:49:03 71° W 03:54:30 13° S
Cosmos 1602 4.5 03:48:57 27° WSW 03:50:20 37° WNW 03:53:56 10° N
NOSS 2-2 (C) 4.1 03:50:13 23° WSW 03:52:35 50° NW 03:57:20 10° NNE
Okean O Rocket 3.4 03:49:46 10° NE 03:53:28 27° E 03:57:09 10° SSE
Cosmos 2082 Rocket 3.1 03:48:59 10° NNW 03:54:35 52° ENE 04:00:07 10° SE
Cosmos 1025 Rocket 3.4 03:50:35 10° NNW 03:54:42 46° W 03:57:06 22° SSW
Abrixas rocket 4.5 03:51:55 10° WNW 03:54:45 24° N 03:57:34 10° NE
Cosmos 1850 Rocket 4.1 03:51:24 10° NNW 03:56:34 59° WSW 04:01:43 10° S
Cosmos 1741 Rocket 4.1 03:54:26 10° NNW 03:59:37 57° WSW 04:04:44 10° S
Cosmos 1455 Rocket 3.1 03:56:19 17° S 03:59:44 85° E 04:04:13 10° N
Cosmos 1315 Rocket 2.9 03:58:51 17° S 04:01:57 78° E 04:06:00 10° NNE
Meteor 2-4 Rocket 3.7 04:01:34 10° NNW 04:06:51 57° W 04:11:57 11° S
BREEZE-M DEB (TANK) 4.4 03:59:12 10° WNW 04:10:21 46° N 04:13:46 10° E
Cosmos 1605 Rocket 4.4 04:06:18 18° SW 04:10:46 47° WNW 04:16:48 10° N
SL-16 R/B 2.6 04:05:44 10° S 04:11:55 64° WSW 04:18:06 10° NNW
ERS-2 4.4 04:16:26 10° NW 04:18:14 13° WNW 04:20:02 10° W
Cosmos 1975 3.4 04:15:46 10° S 04:19:40 56° E 04:23:35 10° NNE
SME Rocket 3.1 04:16:47 10° S 04:20:25 52° WSW 04:24:34 10° NNW
Cosmos 2016 Rocket 4.5 04:15:30 10° S 04:21:42 63° E 04:27:52 10° NNE
NOSS 5 (C) 4.2 04:20:25 17° SSW 04:22:48 78° SE 04:25:54 10° NE
IRS-1D 3.9 04:20:07 10° N 04:24:57 46° WNW 04:29:09 13° SW
UNKNOWN OBJECT B 2.9 04:21:33 10° N 04:25:38 71° WNW 04:29:31 11° SSW
Cosmos 1544 Rocket 4.4 04:22:33 15° SW 04:25:39 35° WNW 04:29:43 10° N
Okean 2 3.9 04:22:21 10° NNW 04:26:12 39° W 04:29:55 11° SSW
CZ-2D R/B 2.4 04:21:05 10° N 04:26:27 59° WNW 04:31:39 11° SSW
APEX 2.6 04:24:31 16° SSW 04:26:42 86° WNW 04:30:09 10° NNE
Cosmos 1536 4.5 04:26:44 13° WSW 04:29:06 20° WNW 04:32:12 10° NNW
MTI 4.2 04:28:37 10° S 04:31:48 46° W 04:35:00 10° NNW
USA 234 4.0 04:27:35 10° S 04:33:00 28° SW 04:38:29 10° WNW
USA 161 3.8 04:32:48 10° W 04:33:08 11° W 04:33:46 10° WNW
CZ-2C R/B 3.9 04:28:35 10° SSE 04:33:20 86° ENE 04:38:09 10° NNW
Cosmos 1833 Rocket 2.8 04:28:54 10° NNW 04:34:33 83° ENE 04:40:09 10° SSE
PSLV R/B 4.0 04:34:18 10° NNE 04:38:29 84° E 04:42:34 10° SSW
Cosmos 2173 Rocket 4.1 04:40:12 10° SSW 04:46:13 62° W 04:52:22 10° N
CENTAUR R/B 4.1 04:40:30 10° WNW 04:46:27 23° WSW 04:52:33 10° SSW
Cosmos 1174 3.6 04:43:53 10° NW 04:47:17 42° WSW 04:50:13 10° S
Cosmos 1486 Rocket 4.1 04:44:17 10° NNW 04:49:39 89° WSW 04:54:59 10° SSE
Cosmos 2285 Rocket 4.3 04:44:57 10° S 04:51:11 70° ESE 04:57:29 10° NNE
Cosmos 2098 Rocket 3.9 04:50:00 10° SSE 04:53:25 46° E 04:57:43 10° NNE
ARIANE 5 R/B 3.9 04:49:54 10° NNW 04:53:47 23° WNW 04:57:40 10° WSW
Cosmos 1802 Rocket 4.2 04:53:05 10° SSW 04:59:05 56° W 05:05:08 10° N
Cosmos 1459 Rocket 4.4 04:53:44 10° SSW 04:59:49 48° WNW 05:05:54 10° N
